contact:dominique.lefevre@mio.osupytheas.fr, maurice.libes@osupytheas.fr, didier.mallarino@osupytheas.fr
Project:EMSO http://www.emso-fr.org/EMSO-France
Depth: 2436.0 m
Title:EMSO Ligure Ouest : Data MII capteur CSTAR
DateTime,Latitude,Longitude,Instrument_Serial,Reference_Counts,Signal_Counts,Corrected_Signal_raw_counts,Calculated_Beam_c_inverse_meters,Internal_thermistor_counts
DateTime,Latitude,Longitude,Instrument_Serial,Reference_Counts,Signal_Counts,Corrected_Signal_raw_counts,Calculated_Beam_c_inverse_meters,Internal_thermistor_counts
2023-05-22T00:02:12,42.805,6.029,CST-1368DR,4291,4676,11568,01.200,552
2023-05-22T00:05:13,42.805,6.029,CST-1368DR,4291,4674,11564,01.202,552
2023-05-22T00:08:15,42.805,6.029,CST-1368DR,4291,4673,11560,01.203,552
2023-05-22T00:11:16,42.805,6.029,CST-1368DR,4291,4676,11567,01.201,552
2023-05-22T00:14:18,42.805,6.029,CST-1368DR,4291,4676,11567,01.201,552
2023-05-22T00:17:19,42.805,6.029,CST-1368DR,4291,4674,11562,01.202,552
2023-05-22T00:20:21,42.805,6.029,CST-1368DR,4291,4672,11558,01.204,552
2023-05-22T00:23:23,42.805,6.029,CST-1368DR,4291,4677,11570,01.200,552
2023-05-22T00:26:24,42.805,6.029,CST-1368DR,4291,4676,11568,01.200,552
2023-05-22T00:29:26,42.805,6.029,CST-1368DR,4291,4672,11558,01.204,552
2023-05-22T00:32:27,42.805,6.029,CST-1368DR,4291,4671,11557,01.204,552
2023-05-22T00:35:29,42.805,6.029,CST-1368DR,4291,4673,11562,01.202,552
2023-05-22T00:38:31,42.805,6.029,CST-1368DR,4291,4676,11568,01.200,552
2023-05-22T00:41:32,42.805,6.029,CST-1368DR,4291,4675,11566,01.201,552
2023-05-22T00:44:34,42.805,6.029,CST-1368DR,4291,4674,11563,01.202,552
2023-05-22T00:47:35,42.805,6.029,CST-1368DR,4291,4674,11564,01.202,552
2023-05-22T00:50:37,42.805,6.029,CST-1368DR,4291,4676,11567,01.201,551
2023-05-22T00:53:38,42.805,6.029,CST-1368DR,4291,4674,11563,01.202,552
2023-05-22T00:56:40,42.805,6.029,CST-1368DR,4291,4675,11565,01.201,552
2023-05-22T00:59:42,42.805,6.029,CST-1368DR,4291,4669,11550,01.206,551
2023-05-22T01:02:43,42.805,6.029,CST-1368DR,4291,4671,11557,01.204,552
2023-05-22T01:05:45,42.805,6.029,CST-1368DR,4291,4669,11551,01.206,552
2023-05-22T01:08:46,42.805,6.029,CST-1368DR,4291,4674,11562,01.202,552
2023-05-22T01:11:48,42.805,6.029,CST-1368DR,4291,4677,11570,01.200,552
2023-05-22T01:14:50,42.805,6.029,CST-1368DR,4291,4676,11568,01.200,552
2023-05-22T01:17:51,42.805,6.029,CST-1368DR,4291,4674,11564,01.202,552
2023-05-22T01:20:53,42.805,6.029,CST-1368DR,4291,4673,11562,01.202,552
2023-05-22T01:23:54,42.805,6.029,CST-1368DR,4291,4674,11564,01.202,552
2023-05-22T01:26:56,42.805,6.029,CST-1368DR,4291,4676,11569,01.200,552
2023-05-22T01:29:57,42.805,6.029,CST-1368DR,4291,4675,11565,01.201,552
2023-05-22T01:32:59,42.805,6.029,CST-1368DR,4291,4673,11561,01.203,552
2023-05-22T01:36:01,42.805,6.029,CST-1368DR,4291,4673,11562,01.202,552
2023-05-22T01:39:02,42.805,6.029,CST-1368DR,4291,4675,11566,01.201,552
2023-05-22T01:42:04,42.805,6.029,CST-1368DR,4291,4673,11561,01.203,552
2023-05-22T01:45:05,42.805,6.029,CST-1368DR,4291,4674,11562,01.202,552
2023-05-22T01:48:07,42.805,6.029,CST-1368DR,4291,4674,11562,01.202,552
2023-05-22T01:51:08,42.805,6.029,CST-1368DR,4291,4663,11537,01.211,552
2023-05-22T01:54:10,42.805,6.029,CST-1368DR,4291,4670,11552,01.206,552
2023-05-22T01:57:12,42.805,6.029,CST-1368DR,4291,4672,11558,01.204,552
2023-05-22T02:00:13,42.805,6.029,CST-1368DR,4291,4673,11562,01.202,552
2023-05-22T02:03:15,42.805,6.029,CST-1368DR,4291,4674,11563,01.202,552
2023-05-22T02:06:16,42.805,6.029,CST-1368DR,4291,4675,11565,01.201,552
2023-05-22T02:09:18,42.805,6.029,CST-1368DR,4291,4671,11557,01.204,552
2023-05-22T02:12:20,42.805,6.029,CST-1368DR,4291,4670,11552,01.206,552
2023-05-22T02:15:21,42.805,6.029,CST-1368DR,4291,4671,11555,01.205,552
2023-05-22T02:18:23,42.805,6.029,CST-1368DR,4291,4673,11560,01.203,552
2023-05-22T02:21:24,42.805,6.029,CST-1368DR,4291,4671,11556,01.204,552
2023-05-22T02:24:26,42.805,6.029,CST-1368DR,4291,4673,11560,01.203,552
2023-05-22T02:27:27,42.805,6.029,CST-1368DR,4291,4672,11557,01.204,552
2023-05-22T02:30:29,42.805,6.029,CST-1368DR,4291,4672,11559,01.203,552
2023-05-22T02:33:31,42.805,6.029,CST-1368DR,4291,4672,11558,01.204,552
2023-05-22T02:36:32,42.805,6.029,CST-1368DR,4291,4673,11561,01.203,552
2023-05-22T02:39:34,42.805,6.029,CST-1368DR,4291,4669,11550,01.206,552
2023-05-22T02:42:35,42.805,6.029,CST-1368DR,4291,4673,11561,01.203,552
2023-05-22T02:45:37,42.805,6.029,CST-1368DR,4291,4673,11560,01.203,552
2023-05-22T02:48:38,42.805,6.029,CST-1368DR,4291,4672,11558,01.204,552
2023-05-22T02:51:40,42.805,6.029,CST-1368DR,4291,4672,11557,01.204,552
2023-05-22T02:54:42,42.805,6.029,CST-1368DR,4291,4674,11563,01.202,552
2023-05-22T02:57:43,42.805,6.029,CST-1368DR,4291,4673,11561,01.203,552
2023-05-22T03:00:45,42.805,6.029,CST-1368DR,4291,4673,11561,01.203,552
2023-05-22T03:03:46,42.805,6.029,CST-1368DR,4291,4673,11560,01.203,552
2023-05-22T03:06:48,42.805,6.029,CST-1368DR,4291,4673,11560,01.203,552
2023-05-22T03:09:49,42.805,6.029,CST-1368DR,4291,4674,11564,01.202,552
2023-05-22T03:12:51,42.805,6.029,CST-1368DR,4291,4674,11562,01.202,552
2023-05-22T03:15:53,42.805,6.029,CST-1368DR,4291,4673,11560,01.203,552
2023-05-22T03:18:54,42.805,6.029,CST-1368DR,4291,4672,11557,01.204,552
2023-05-22T03:21:56,42.805,6.029,CST-1368DR,4291,4672,11559,01.203,552
2023-05-22T03:24:57,42.805,6.029,CST-1368DR,4291,4673,11560,01.203,552
2023-05-22T03:27:59,42.805,6.029,CST-1368DR,4291,4673,11560,01.203,552
2023-05-22T03:31:00,42.805,6.029,CST-1368DR,4291,4669,11550,01.206,552
2023-05-22T03:34:02,42.805,6.029,CST-1368DR,4291,4673,11560,01.203,552
2023-05-22T03:37:04,42.805,6.029,CST-1368DR,4291,4674,11563,01.202,552
2023-05-22T03:40:05,42.805,6.029,CST-1368DR,4291,4671,11555,01.205,552
2023-05-22T03:43:07,42.805,6.029,CST-1368DR,4291,4669,11552,01.206,552
2023-05-22T03:46:08,42.805,6.029,CST-1368DR,4291,4673,11560,01.203,552
2023-05-22T03:49:10,42.805,6.029,CST-1368DR,4291,4671,11556,01.204,552
2023-05-22T03:52:12,42.805,6.029,CST-1368DR,4291,4671,11557,01.204,552
2023-05-22T03:55:13,42.805,6.029,CST-1368DR,4291,4671,11555,01.205,552
2023-05-22T03:58:15,42.805,6.029,CST-1368DR,4291,4671,11555,01.205,552
2023-05-22T04:01:16,42.805,6.029,CST-1368DR,4291,4671,11556,01.204,552
2023-05-22T04:04:18,42.805,6.029,CST-1368DR,4291,4670,11553,01.205,552
2023-05-22T04:07:19,42.805,6.029,CST-1368DR,4291,4669,11551,01.206,552
2023-05-22T04:10:21,42.805,6.029,CST-1368DR,4291,4668,11549,01.207,552
2023-05-22T04:13:23,42.805,6.029,CST-1368DR,4291,4670,11553,01.205,552
2023-05-22T04:16:24,42.805,6.029,CST-1368DR,4291,4671,11556,01.204,552
2023-05-22T04:19:26,42.805,6.029,CST-1368DR,4291,4671,11555,01.205,552
2023-05-22T04:22:27,42.805,6.029,CST-1368DR,4290,4668,11550,01.206,552
2023-05-22T04:25:29,42.805,6.029,CST-1368DR,4291,4671,11557,01.204,552
2023-05-22T04:28:31,42.805,6.029,CST-1368DR,4291,4673,11560,01.203,552
2023-05-22T04:31:32,42.805,6.029,CST-1368DR,4291,4672,11558,01.204,552
2023-05-22T04:34:34,42.805,6.029,CST-1368DR,4291,4673,11561,01.203,552
2023-05-22T04:37:35,42.805,6.029,CST-1368DR,4290,4669,11554,01.205,552
2023-05-22T04:40:37,42.805,6.029,CST-1368DR,4291,4671,11555,01.205,552
2023-05-22T04:43:38,42.805,6.029,CST-1368DR,4291,4673,11560,01.203,552
2023-05-22T04:46:40,42.805,6.029,CST-1368DR,4290,4670,11555,01.205,552
2023-05-22T04:49:42,42.805,6.029,CST-1368DR,4290,4666,11547,01.207,552
2023-05-22T04:52:43,42.805,6.029,CST-1368DR,4290,4665,11542,01.209,552
2023-05-22T04:55:45,42.805,6.029,CST-1368DR,4290,4664,11542,01.209,552
2023-05-22T04:58:46,42.805,6.029,CST-1368DR,4290,4663,11539,01.210,552
2023-05-22T05:01:48,42.805,6.029,CST-1368DR,4290,4663,11539,01.210,552
2023-05-22T05:04:49,42.805,6.029,CST-1368DR,4290,4664,11542,01.209,552
2023-05-22T05:07:51,42.805,6.029,CST-1368DR,4291,4665,11541,01.210,552
2023-05-22T05:10:53,42.805,6.029,CST-1368DR,4290,4671,11558,01.204,552
2023-05-22T05:13:54,42.805,6.029,CST-1368DR,4290,4665,11544,01.209,552
2023-05-22T05:16:56,42.805,6.029,CST-1368DR,4290,4663,11539,01.210,552
2023-05-22T05:19:57,42.805,6.029,CST-1368DR,4290,4663,11539,01.210,552
2023-05-22T05:22:59,42.805,6.029,CST-1368DR,4290,4665,11544,01.209,552
2023-05-22T05:26:01,42.805,6.029,CST-1368DR,4290,4662,11537,01.211,552
2023-05-22T05:29:02,42.805,6.029,CST-1368DR,4290,4663,11538,01.211,552
2023-05-22T05:32:04,42.805,6.029,CST-1368DR,4290,4663,11538,01.211,552
2023-05-22T05:35:05,42.805,6.029,CST-1368DR,4290,4659,11529,01.214,552
2023-05-22T05:38:07,42.805,6.029,CST-1368DR,4290,4663,11539,01.210,552
2023-05-22T05:41:08,42.805,6.029,CST-1368DR,4290,4664,11541,01.210,552
2023-05-22T05:44:10,42.805,6.029,CST-1368DR,4290,4673,11564,01.202,552
2023-05-22T05:47:12,42.805,6.029,CST-1368DR,4290,4662,11536,01.211,552
2023-05-22T05:50:13,42.805,6.029,CST-1368DR,4290,4661,11534,01.212,552
2023-05-22T05:53:15,42.805,6.029,CST-1368DR,4290,4664,11542,01.209,552
2023-05-22T05:56:16,42.805,6.029,CST-1368DR,4290,4659,11528,01.214,552
2023-05-22T05:59:18,42.805,6.029,CST-1368DR,4290,4664,11542,01.209,552
2023-05-22T06:02:19,42.805,6.029,CST-1368DR,4290,4664,11542,01.209,552
2023-05-22T06:05:21,42.805,6.029,CST-1368DR,4290,4665,11544,01.209,552
2023-05-22T06:08:23,42.805,6.029,CST-1368DR,4290,4663,11539,01.210,552
2023-05-22T06:11:24,42.805,6.029,CST-1368DR,4290,4666,11547,01.207,552
2023-05-22T06:14:26,42.805,6.029,CST-1368DR,4290,4668,11550,01.206,552
2023-05-22T06:17:27,42.805,6.029,CST-1368DR,4290,4666,11545,01.208,552
2023-05-22T06:20:29,42.805,6.029,CST-1368DR,4290,4663,11538,01.211,552
2023-05-22T06:23:30,42.805,6.029,CST-1368DR,4290,4665,11544,01.209,552
2023-05-22T06:26:32,42.805,6.029,CST-1368DR,4290,4665,11542,01.209,552
2023-05-22T06:29:34,42.805,6.029,CST-1368DR,4290,4665,11544,01.209,552
2023-05-22T06:32:37,42.805,6.029,CST-1368DR,4290,4667,11549,01.207,552
2023-05-22T06:35:39,42.805,6.029,CST-1368DR,4291,4666,11544,01.209,552
2023-05-22T06:38:41,42.805,6.029,CST-1368DR,4290,4665,11543,01.209,552
2023-05-22T06:41:42,42.805,6.029,CST-1368DR,4290,4666,11546,01.208,552
2023-05-22T06:44:44,42.805,6.029,CST-1368DR,4290,4668,11551,01.206,552
2023-05-22T06:47:45,42.805,6.029,CST-1368DR,4290,4663,11538,01.211,552
2023-05-22T06:50:47,42.805,6.029,CST-1368DR,4290,4665,11544,01.209,552
2023-05-22T06:53:48,42.805,6.029,CST-1368DR,4290,4665,11544,01.209,552
2023-05-22T06:56:50,42.805,6.029,CST-1368DR,4290,4666,11546,01.208,552
2023-05-22T06:59:52,42.805,6.029,CST-1368DR,4291,4665,11542,01.209,552
2023-05-22T07:02:53,42.805,6.029,CST-1368DR,4290,4664,11542,01.209,552
2023-05-22T07:05:55,42.805,6.029,CST-1368DR,4290,4663,11538,01.211,552
2023-05-22T07:08:56,42.805,6.029,CST-1368DR,4290,4654,11516,01.218,552
2023-05-22T07:11:58,42.805,6.029,CST-1368DR,4291,4664,11538,01.211,552
2023-05-22T07:14:59,42.805,6.029,CST-1368DR,4290,4663,11538,01.211,552
2023-05-22T07:18:01,42.805,6.029,CST-1368DR,4290,4665,11543,01.209,552
2023-05-22T07:21:03,42.805,6.029,CST-1368DR,4290,4667,11549,01.207,552
2023-05-22T07:24:04,42.805,6.029,CST-1368DR,4290,4666,11547,01.207,552
2023-05-22T07:27:06,42.805,6.029,CST-1368DR,4290,4664,11541,01.210,552
2023-05-22T07:30:07,42.805,6.029,CST-1368DR,4290,4665,11544,01.209,552
2023-05-22T07:33:09,42.805,6.029,CST-1368DR,4290,4665,11542,01.209,552
2023-05-22T07:36:10,42.805,6.029,CST-1368DR,4290,4667,11548,01.207,552
2023-05-22T07:39:12,42.805,6.029,CST-1368DR,4290,4666,11546,01.208,552
2023-05-22T07:42:14,42.805,6.029,CST-1368DR,4290,4666,11547,01.207,552
2023-05-22T07:45:15,42.805,6.029,CST-1368DR,4290,4670,11555,01.205,552
2023-05-22T07:48:17,42.805,6.029,CST-1368DR,4290,4669,11553,01.205,552
2023-05-22T07:51:18,42.805,6.029,CST-1368DR,4290,4666,11545,01.208,552
2023-05-22T07:54:20,42.805,6.029,CST-1368DR,4290,4666,11547,01.207,552
2023-05-22T07:57:22,42.805,6.029,CST-1368DR,4290,4666,11546,01.208,552
2023-05-22T08:00:23,42.805,6.029,CST-1368DR,4290,4665,11544,01.209,552
2023-05-22T08:03:25,42.805,6.029,CST-1368DR,4290,4663,11538,01.211,552
2023-05-22T08:06:26,42.805,6.029,CST-1368DR,4290,4661,11534,01.212,552
2023-05-22T08:09:28,42.805,6.029,CST-1368DR,4290,4664,11541,01.210,552
2023-05-22T08:12:29,42.805,6.029,CST-1368DR,4290,4666,11547,01.207,552
2023-05-22T08:15:31,42.805,6.029,CST-1368DR,4290,4666,11546,01.208,552
2023-05-22T08:18:33,42.805,6.029,CST-1368DR,4290,4664,11541,01.210,552
2023-05-22T08:21:34,42.805,6.029,CST-1368DR,4290,4662,11536,01.211,552
2023-05-22T08:24:36,42.805,6.029,CST-1368DR,4290,4664,11542,01.209,552
2023-05-22T08:27:37,42.805,6.029,CST-1368DR,4290,4668,11551,01.206,552
2023-05-22T08:30:40,42.805,6.029,CST-1368DR,4291,4668,11549,01.207,552
2023-05-22T08:33:42,42.805,6.029,CST-1368DR,4290,4664,11541,01.210,552
2023-05-22T08:36:43,42.805,6.029,CST-1368DR,4291,4668,11548,01.207,552
2023-05-22T08:39:45,42.805,6.029,CST-1368DR,4291,4667,11545,01.208,552
2023-05-22T08:42:46,42.805,6.029,CST-1368DR,4290,4669,11553,01.205,552
2023-05-22T08:45:48,42.805,6.029,CST-1368DR,4290,4665,11543,01.209,552
2023-05-22T08:48:49,42.805,6.029,CST-1368DR,4291,4668,11549,01.207,552
2023-05-22T08:51:51,42.805,6.029,CST-1368DR,4290,4666,11545,01.208,552
2023-05-22T08:54:53,42.805,6.029,CST-1368DR,4290,4664,11541,01.210,552
2023-05-22T08:57:54,42.805,6.029,CST-1368DR,4290,4664,11541,01.210,552
2023-05-22T09:00:56,42.805,6.029,CST-1368DR,4290,4663,11539,01.210,552
2023-05-22T09:03:57,42.805,6.029,CST-1368DR,4290,4664,11542,01.209,552
2023-05-22T09:06:59,42.805,6.029,CST-1368DR,4290,4665,11542,01.209,552
2023-05-22T09:10:00,42.805,6.029,CST-1368DR,4290,4666,11546,01.208,552
2023-05-22T09:13:02,42.805,6.029,CST-1368DR,4290,4665,11544,01.209,552
2023-05-22T09:16:04,42.805,6.029,CST-1368DR,4290,4668,11550,01.206,552
2023-05-22T09:19:05,42.805,6.029,CST-1368DR,4290,4666,11547,01.207,552
2023-05-22T09:22:07,42.805,6.029,CST-1368DR,4290,4666,11547,01.207,552
2023-05-22T09:25:08,42.805,6.029,CST-1368DR,4290,4667,11549,01.207,552
2023-05-22T09:28:10,42.805,6.029,CST-1368DR,4290,4667,11548,01.207,552
2023-05-22T09:31:12,42.805,6.029,CST-1368DR,4290,4667,11548,01.207,552
2023-05-22T09:34:13,42.805,6.029,CST-1368DR,4290,4668,11551,01.206,552
2023-05-22T09:37:15,42.805,6.029,CST-1368DR,4290,4665,11542,01.209,552
2023-05-22T09:40:16,42.805,6.029,CST-1368DR,4290,4665,11544,01.209,552
2023-05-22T09:43:18,42.805,6.029,CST-1368DR,4290,4665,11543,01.209,552
2023-05-22T09:46:19,42.805,6.029,CST-1368DR,4290,4668,11551,01.206,552
2023-05-22T09:49:21,42.805,6.029,CST-1368DR,4290,4664,11542,01.209,552
2023-05-22T09:52:23,42.805,6.029,CST-1368DR,4290,4664,11542,01.209,551
2023-05-22T09:55:24,42.805,6.029,CST-1368DR,4290,4666,11546,01.208,552
2023-05-22T09:58:26,42.805,6.029,CST-1368DR,4290,4663,11539,01.210,552
2023-05-22T10:01:27,42.805,6.029,CST-1368DR,4290,4665,11542,01.209,552
2023-05-22T10:04:29,42.805,6.029,CST-1368DR,4290,4665,11544,01.209,552
2023-05-22T10:07:30,42.805,6.029,CST-1368DR,4290,4663,11539,01.210,552
2023-05-22T10:10:32,42.805,6.029,CST-1368DR,4290,4668,11551,01.206,552
2023-05-22T10:13:34,42.805,6.029,CST-1368DR,4290,4667,11549,01.207,552
2023-05-22T10:16:35,42.805,6.029,CST-1368DR,4290,4666,11545,01.208,552
2023-05-22T10:19:37,42.805,6.029,CST-1368DR,4290,4666,11545,01.208,552
2023-05-22T10:22:38,42.805,6.029,CST-1368DR,4290,4666,11547,01.207,552
2023-05-22T10:25:40,42.805,6.029,CST-1368DR,4290,4663,11538,01.211,552
2023-05-22T10:28:42,42.805,6.029,CST-1368DR,4290,4663,11539,01.210,552
2023-05-22T10:31:43,42.805,6.029,CST-1368DR,4290,4665,11543,01.209,552
2023-05-22T10:34:45,42.805,6.029,CST-1368DR,4290,4666,11546,01.208,552
2023-05-22T10:37:46,42.805,6.029,CST-1368DR,4290,4666,11545,01.208,552
2023-05-22T10:40:48,42.805,6.029,CST-1368DR,4290,4663,11539,01.210,552
2023-05-22T10:43:49,42.805,6.029,CST-1368DR,4290,4665,11544,01.209,552
2023-05-22T10:46:51,42.805,6.029,CST-1368DR,4290,4665,11544,01.209,552
2023-05-22T10:49:53,42.805,6.029,CST-1368DR,4290,4665,11544,01.209,552
2023-05-22T10:52:54,42.805,6.029,CST-1368DR,4290,4666,11546,01.208,552
2023-05-22T10:55:56,42.805,6.029,CST-1368DR,4290,4667,11548,01.207,552
2023-05-22T10:58:57,42.805,6.029,CST-1368DR,4290,4659,11529,01.214,552
2023-05-22T11:01:59,42.805,6.029,CST-1368DR,4290,4660,11531,01.213,552
2023-05-22T11:05:00,42.805,6.029,CST-1368DR,4290,4661,11533,01.212,552
2023-05-22T11:08:02,42.805,6.029,CST-1368DR,4290,4662,11536,01.211,552
2023-05-22T11:11:04,42.805,6.029,CST-1368DR,4290,4663,11538,01.211,552
2023-05-22T11:14:05,42.805,6.029,CST-1368DR,4290,4662,11535,01.212,552
2023-05-22T11:17:07,42.805,6.029,CST-1368DR,4290,4664,11541,01.210,552
2023-05-22T11:20:08,42.805,6.029,CST-1368DR,4290,4664,11541,01.210,552
2023-05-22T11:23:10,42.805,6.029,CST-1368DR,4290,4663,11538,01.211,552
2023-05-22T11:26:11,42.805,6.029,CST-1368DR,4290,4662,11535,01.212,552
2023-05-22T11:29:13,42.805,6.029,CST-1368DR,4290,4663,11539,01.210,552
2023-05-22T11:32:15,42.805,6.029,CST-1368DR,4290,4665,11544,01.209,552
2023-05-22T11:35:16,42.805,6.029,CST-1368DR,4290,4664,11541,01.210,552
2023-05-22T11:38:18,42.805,6.029,CST-1368DR,4290,4664,11542,01.209,552
2023-05-22T11:41:19,42.805,6.029,CST-1368DR,4290,4666,11546,01.208,552
2023-05-22T11:44:21,42.805,6.029,CST-1368DR,4290,4666,11547,01.207,552
2023-05-22T11:47:23,42.805,6.029,CST-1368DR,4290,4662,11536,01.211,552
2023-05-22T11:50:24,42.805,6.029,CST-1368DR,4290,4665,11544,01.209,552
2023-05-22T11:53:26,42.805,6.029,CST-1368DR,4290,4665,11542,01.209,552
2023-05-22T11:56:27,42.805,6.029,CST-1368DR,4290,4666,11547,01.207,552
2023-05-22T11:59:29,42.805,6.029,CST-1368DR,4290,4667,11549,01.207,552
2023-05-22T12:02:30,42.805,6.029,CST-1368DR,4290,4666,11545,01.208,552
2023-05-22T12:05:32,42.805,6.029,CST-1368DR,4290,4665,11542,01.209,552
2023-05-22T12:08:34,42.805,6.029,CST-1368DR,4290,4665,11542,01.209,552
2023-05-22T12:11:35,42.805,6.029,CST-1368DR,4290,4664,11541,01.210,552
2023-05-22T12:14:37,42.805,6.029,CST-1368DR,4290,4666,11545,01.208,552
2023-05-22T12:17:38,42.805,6.029,CST-1368DR,4290,4666,11546,01.208,552
2023-05-22T12:20:40,42.805,6.029,CST-1368DR,4290,4665,11544,01.209,552
2023-05-22T12:23:41,42.805,6.029,CST-1368DR,4290,4665,11542,01.209,552
2023-05-22T12:26:43,42.805,6.029,CST-1368DR,4290,4664,11541,01.210,552
2023-05-22T12:29:45,42.805,6.029,CST-1368DR,4290,4664,11542,01.209,552
2023-05-22T12:32:46,42.805,6.029,CST-1368DR,4290,4665,11544,01.209,552
2023-05-22T12:35:48,42.805,6.029,CST-1368DR,4290,4668,11551,01.206,552
2023-05-22T12:38:49,42.805,6.029,CST-1368DR,4290,4668,11550,01.206,552
2023-05-22T12:41:51,42.805,6.029,CST-1368DR,4290,4666,11546,01.208,552
2023-05-22T12:44:52,42.805,6.029,CST-1368DR,4290,4666,11547,01.207,552
2023-05-22T12:47:54,42.805,6.029,CST-1368DR,4290,4665,11542,01.209,552
2023-05-22T12:50:56,42.805,6.029,CST-1368DR,4290,4667,11549,01.207,552
2023-05-22T12:53:57,42.805,6.029,CST-1368DR,4290,4668,11550,01.206,552
2023-05-22T12:56:59,42.805,6.029,CST-1368DR,4290,4664,11541,01.210,552
2023-05-22T13:00:00,42.805,6.029,CST-1368DR,4290,4668,11552,01.206,552
2023-05-22T13:03:02,42.805,6.029,CST-1368DR,4290,4663,11539,01.210,552
2023-05-22T13:06:04,42.805,6.029,CST-1368DR,4290,4667,11549,01.207,552
2023-05-22T13:09:05,42.805,6.029,CST-1368DR,4290,4666,11547,01.207,552
2023-05-22T13:12:07,42.805,6.029,CST-1368DR,4290,4667,11549,01.207,552
2023-05-22T13:15:08,42.805,6.029,CST-1368DR,4290,4668,11552,01.206,552
2023-05-22T13:18:10,42.805,6.029,CST-1368DR,4290,4669,11552,01.206,552
2023-05-22T13:21:11,42.805,6.029,CST-1368DR,4290,4665,11544,01.209,552
2023-05-22T13:24:13,42.805,6.029,CST-1368DR,4290,4668,11550,01.206,552
2023-05-22T13:27:15,42.805,6.029,CST-1368DR,4290,4667,11549,01.207,551
2023-05-22T13:30:16,42.805,6.029,CST-1368DR,4290,4667,11547,01.207,552
2023-05-22T13:33:18,42.805,6.029,CST-1368DR,4290,4668,11550,01.206,552
2023-05-22T13:36:19,42.805,6.029,CST-1368DR,4290,4665,11544,01.209,552
2023-05-22T13:39:21,42.805,6.029,CST-1368DR,4290,4667,11549,01.207,552
2023-05-22T13:42:23,42.805,6.029,CST-1368DR,4290,4668,11550,01.206,552
2023-05-22T13:45:24,42.805,6.029,CST-1368DR,4290,4667,11547,01.207,552
2023-05-22T13:48:26,42.805,6.029,CST-1368DR,4290,4665,11542,01.209,552
2023-05-22T13:51:27,42.805,6.029,CST-1368DR,4290,4665,11542,01.209,552
2023-05-22T13:54:29,42.805,6.029,CST-1368DR,4290,4664,11541,01.210,552
2023-05-22T13:57:30,42.805,6.029,CST-1368DR,4290,4662,11536,01.211,552
2023-05-22T14:00:32,42.805,6.029,CST-1368DR,4290,4664,11541,01.210,552
2023-05-22T14:03:34,42.805,6.029,CST-1368DR,4290,4664,11541,01.210,552
2023-05-22T14:06:35,42.805,6.029,CST-1368DR,4290,4663,11539,01.210,552
2023-05-22T14:09:37,42.805,6.029,CST-1368DR,4290,4661,11534,01.212,552
2023-05-22T14:12:38,42.805,6.029,CST-1368DR,4290,4662,11535,01.212,552
2023-05-22T14:15:40,42.805,6.029,CST-1368DR,4290,4662,11535,01.212,552
2023-05-22T14:18:41,42.805,6.029,CST-1368DR,4290,4664,11542,01.209,552
2023-05-22T14:21:43,42.805,6.029,CST-1368DR,4290,4661,11533,01.212,552
2023-05-22T14:24:45,42.805,6.029,CST-1368DR,4290,4661,11533,01.212,552
2023-05-22T14:27:46,42.805,6.029,CST-1368DR,4290,4660,11530,01.213,552
2023-05-22T14:30:49,42.805,6.029,CST-1368DR,4290,4664,11541,01.210,552
2023-05-22T14:33:51,42.805,6.029,CST-1368DR,4290,4662,11536,01.211,552
2023-05-22T14:36:52,42.805,6.029,CST-1368DR,4290,4662,11536,01.211,552
2023-05-22T14:39:54,42.805,6.029,CST-1368DR,4290,4662,11536,01.211,552
2023-05-22T14:42:56,42.805,6.029,CST-1368DR,4290,4657,11523,01.216,552
2023-05-22T14:45:57,42.805,6.029,CST-1368DR,4290,4661,11533,01.212,552
2023-05-22T14:48:59,42.805,6.029,CST-1368DR,4290,4662,11536,01.211,552
2023-05-22T14:52:00,42.805,6.029,CST-1368DR,4290,4659,11528,01.214,552
2023-05-22T14:55:02,42.805,6.029,CST-1368DR,4290,4663,11539,01.210,552
2023-05-22T14:58:03,42.805,6.029,CST-1368DR,4290,4661,11533,01.212,552
2023-05-22T15:01:05,42.805,6.029,CST-1368DR,4290,4661,11533,01.212,552
2023-05-22T15:04:07,42.805,6.029,CST-1368DR,4290,4658,11526,01.215,552
2023-05-22T15:07:08,42.805,6.029,CST-1368DR,4290,4662,11536,01.211,552
2023-05-22T15:10:10,42.805,6.029,CST-1368DR,4290,4662,11535,01.212,552
2023-05-22T15:13:11,42.805,6.029,CST-1368DR,4290,4664,11541,01.210,552
2023-05-22T15:16:13,42.805,6.029,CST-1368DR,4290,4661,11533,01.212,552
2023-05-22T15:19:14,42.805,6.029,CST-1368DR,4290,4661,11534,01.212,552
2023-05-22T15:22:16,42.805,6.029,CST-1368DR,4290,4661,11534,01.212,552
2023-05-22T15:25:18,42.805,6.029,CST-1368DR,4290,4662,11535,01.212,552
2023-05-22T15:28:19,42.805,6.029,CST-1368DR,4290,4662,11536,01.211,552
2023-05-22T15:31:21,42.805,6.029,CST-1368DR,4290,4662,11535,01.212,552
2023-05-22T15:34:22,42.805,6.029,CST-1368DR,4290,4660,11531,01.213,552
2023-05-22T15:37:24,42.805,6.029,CST-1368DR,4290,4660,11531,01.213,552
2023-05-22T15:40:26,42.805,6.029,CST-1368DR,4290,4661,11533,01.212,552
2023-05-22T15:43:27,42.805,6.029,CST-1368DR,4290,4661,11534,01.212,552
2023-05-22T15:46:29,42.805,6.029,CST-1368DR,4290,4660,11531,01.213,552
2023-05-22T15:49:30,42.805,6.029,CST-1368DR,4290,4661,11534,01.212,552
2023-05-22T15:52:32,42.805,6.029,CST-1368DR,4290,4659,11529,01.214,552
2023-05-22T15:55:33,42.805,6.029,CST-1368DR,4290,4661,11534,01.212,552
2023-05-22T15:58:35,42.805,6.029,CST-1368DR,4290,4661,11534,01.212,552
2023-05-22T16:01:37,42.805,6.029,CST-1368DR,4290,4663,11538,01.211,552
2023-05-22T16:04:38,42.805,6.029,CST-1368DR,4290,4661,11533,01.212,552
2023-05-22T16:07:40,42.805,6.029,CST-1368DR,4290,4662,11536,01.211,552
2023-05-22T16:10:41,42.805,6.029,CST-1368DR,4290,4656,11520,01.217,551
2023-05-22T16:13:43,42.805,6.029,CST-1368DR,4290,4665,11544,01.209,552
2023-05-22T16:16:45,42.805,6.029,CST-1368DR,4290,4661,11534,01.212,552
2023-05-22T16:19:46,42.805,6.029,CST-1368DR,4290,4662,11537,01.211,552
2023-05-22T16:22:48,42.805,6.029,CST-1368DR,4290,4659,11529,01.214,552
2023-05-22T16:25:49,42.805,6.029,CST-1368DR,4290,4663,11538,01.211,552
2023-05-22T16:28:51,42.805,6.029,CST-1368DR,4290,4662,11536,01.211,552
2023-05-22T16:31:52,42.805,6.029,CST-1368DR,4290,4662,11536,01.211,552
2023-05-22T16:34:54,42.805,6.029,CST-1368DR,4290,4661,11533,01.212,552
2023-05-22T16:37:56,42.805,6.029,CST-1368DR,4290,4662,11536,01.211,552